Location: Heiligenberg
(48.5381°N, 7.3897°E)
Time: 09:44:26
(UTC+00:00)

SL-14 R/B - Visible Passes

Search period start: 05 October 2022 00:00
Search period end: 15 October 2022 00:00
Orbit: 516 x 551 km, 82.4° (Epoch: 04 October)

Date Brightness Start Highest point End Pass type
(mag) Time Alt. Az. Time Alt. Az. Time Alt. Az.
05 Oct 3.3 17:40:23 10° N 17:44:23 87° E 17:48:23 10° S visible
06 Oct 3.3 17:31:04 10° N 17:35:04 84° E 17:39:05 10° S visible
07 Oct 3.3 17:21:45 10° N 17:25:45 81° E 17:29:46 10° SSE visible
08 Oct 7.1 18:51:22 10° WNW 18:51:54 10° W 18:52:26 10° W visible
09 Oct 7.1 18:41:42 10° WNW 18:42:36 11° W 18:43:30 10° W visible
10 Oct 7.1 18:32:08 10° WNW 18:33:18 11° W 18:34:28 10° W visible
11 Oct 7.1 18:22:38 10° WNW 18:24:00 11° W 18:25:21 10° WSW visible
12 Oct 6.2 05:06:39 10° SE 05:09:42 23° E 05:12:48 10° NE visible
12 Oct 7.1 18:13:09 10° WNW 18:14:41 12° W 18:16:13 10° WSW visible
13 Oct 6.2 04:57:22 10° SE 05:00:23 22° E 05:03:26 10° NE visible
13 Oct 7.0 18:03:41 10° WNW 18:05:23 12° W 18:07:03 10° WSW visible
14 Oct 6.3 04:48:06 10° SE 04:51:04 21° E 04:54:04 10° NE visible
14 Oct 6.9 17:54:14 10° WNW 17:56:03 13° W 17:57:53 10° WSW visible
